Карточка аэропорта UATT

Внимание!
Информация на этой странице в стадии наполнения.
Если вы не увидели какой-то информации, или заметили неточность - пожалуйста сообщите нам!
Спасибо!
Команда RU-STAFF
Название аэропортаАктобе
Название аэропорта (англ.)Aktobe
Превышение738 ft. (224.9 m.)
Координаты50°14.748', 57°12.402'
Высота перехода10000ft
Эшелон переходаFL120, QNH<733:FL130
Коды ответчика3440-3447, 3540-3547
Зона ОрВДАктобе РПИ (UATT)
Данные METARUATT 031600Z 08002MPS CAVOK M16/M19 Q1022 NOSIG RMK QFE747/0996
Проноз погоды (TAF)UATT 031100Z 0312/0412 09003MPS CAVOK TXM09/0312Z TNM22/0402Z TEMPO 0320/0403 3100 BR SCT011
NOTAMshow/hide NOTAM
AWOS   TABLE

Информация о ВПП

ВПП Длина ВПП (м.) Покрытие Курс ВПП Частота ILS
133202Бетон135111.7
313202Бетон315111.7

Диспетчерские позиции




Спутниковое изображение